sat.trackr.live / text

‹ back to catalog

LUDI TANCE-4 01A

NORAD 57624 · 2023-120A

PAYLOAD ACTIVE UNKNOWN

§ Identity

Operator
Country
PRC
Launch date
2023-08-12
Launch site
XICLF
Launch vehicle
Mass (kg)
RCS (m²)

Purposes: comms

External: N2YO · Heavens-Above · Gunter

§ Orbital elements

Epoch: 2026-05-25T02:57:21.449088Z

Period
1,436.06 min
Inclination
15.1143°
Eccentricity
0.0001105
Mean motion
1.00274046 rev/d
Perigee alt
35,781.3 km
Apogee alt
35,790.6 km
Semi-major
42,164.1 km
B*
0.0000e+0
RAAN
194.5316°
Arg perigee
84.7220°
Mean anomaly
97.4468°
Rev number
1,031

§ Raw data

LUDI TANCE-4 01A1 57624U 23120A   26145.12316492 -.00000181  00000+0  00000+0 0  99972 57624  15.1143 194.5316 0001105  84.7220  97.4468  1.00274046 10317

JSON: /api/v1/satellites/57624 · /tle

For live sub-satellite position, see the globe view (requires WebGL).

§ Visibility from observer

Set your observer location to see the next 7 days of passes ≥ 10°. The values pass through the URL so the page stays shareable.

No JS? Fill the form by hand. The geolocation button needs JavaScript.